Regional Weather Roundup
Issued by NWS

Home | Current Version | Previous Version | Graphics & Text | Print | Product List | Glossary On
Versions: 1 2 3 4 5 6 7 8 9 10 11 12 13 14 15 16 17 18 19 20 21 22 23 24 25 26 27 28 29 30 31 32 33 34 35 36 37 38 39 40 41 42 43 44 45 46 47 48 49 50
000
ASUS45 KSLC 110510
RWRUT

UTAH REGIONAL WEATHER ROUNDUP
NATIONAL WEATHER SERVICE SALT LAKE CITY UT
1100 PM MDT THU JUL 10 2014

UTZ001>011-023>025-110600-

NORTHERN UTAH

CITY           SKY/WX    TMP DP  RH WIND       PRES   REMARKS
HILL AFB       CLOUDY    72  57  59 S13       30.12R
LOGAN          HVY RAIN  68  60  75 S14       30.05R
OGDEN          LGT RAIN  72  57  59 SE15      30.08R
PROVO AIRPORT    N/A    N/A N/A N/A MISG        N/A
SALT LAKE CITY CLOUDY    69  60  73 SE14G26   30.09R
VERNAL         MOCLDY    69  58  67 W3        30.08R
WENDOVER       CLOUDY    77  54  44 SE25G32   30.02R
HEBER CITY     DRIZZLE   64  59  82 CALM      30.19R
WEST JORDAN    CLOUDY    66  64  94 S17G26    30.11

$$

UTZ012>022-026-027-110600-

SOUTHERN UTAH

CITY           SKY/WX    TMP DP  RH WIND       PRES   REMARKS
BRYCE CANYON   CLOUDY    58  50  75 NW9       30.30R
CEDAR CITY     MOCLDY    59  56  89 SW3       30.16S
MILFORD        CLOUDY    65  60  84 SW6       30.12S
MOAB/CYNLANDS  LGT RAIN  72  61  68 W8        30.05R
PRICE          CLOUDY    70  51  51 NW9       30.15R
ST GEORGE      NOT AVBL

$$

REGIONAL REPORTS     COLORADO/ARIZONA

CITY           SKY/WX    TMP DP  RH WIND       PRES   REMARKS
CRAIG, CO      PTCLDY    65  52  62 W5        30.17R
GRAND JUNCTION MOCLDY    80  50  34 NE7       30.01R
RIFLE          CLOUDY    69  55  60 E12       30.14R
MONTROSE       TSTM      75  54  47 S26G35    30.13R
CORTEZ         MOCLDY    76  50  40 W8        30.13R
PAGE, AZ       CLOUDY    79  50  36 W3        30.06R
GRAND CANYON   PTCLDY    61  59  93 CALM      30.26R
KINGMAN        CLEAR     69  64  84 E6        30.03R
FLAGSTAFF      MOCLDY    59  50  72 CALM      30.29R

$$

REGIONAL REPORTS    NEVADA/IDAHO/WYOMING

CITY           SKY/WX    TMP DP  RH WIND       PRES   REMARKS
LAS VEGAS, NV  CLOUDY    82  58  43 SE5       29.92R
ELY            CLOUDY    63  53  70 SE9       30.20R
ELKO           MOCLDY    68  54  60 SE6       30.06R
POCATELLO, ID  CLEAR     73  40  30 S9        29.98R
BURLEY         CLEAR     65  55  70 S7        29.94R
EVANSTON, WY   CLOUDY    59  54  83 SW16      30.24R
ROCK SPRINGS   CLOUDY    64  53  67 W16G22    30.22R

$$


USA.gov is the U.S. government's official web portal to all federal, state and local government web resources and services.